Find Starlink 31792

NORAD ID: 60132 Int'l Des: 2024-118 Owner: SPXS Country: US Constellation: starlink operational
LEOCIRCULAR

当前视图

正在加载3D地球...

About Starlink 31792

Starlink 31792 (NORAD 60132) is a starlink constellation satellite (v2 mini) launched Jun 24, 2024 by SPXS of US. It operates in LEO, CIRCULAR orbit with a mass of 730.00 kg.

即将过境

Passes for default location (London). Set your location on the main map for personalized predictions.

高度历史

Loading altitude history...

两行轨道根数

1 60132U 24118V 26265.28412860 .00000009 00000-0 11403-4 0 9992
2 60132 53.1608 189.4126 0001278 83.5047 276.6101 15.34410524125856
Epoch: Sep 22, 2026 • Age: 22 hours

当前状态

高度 467.1 km
远地点 / 近地点 N/A
速度 7.64 km/s
星下点 47.47°N, 162.44°E
发射日期 Jun 24, 2024
运行时间 2.2 years
类型 internet

技术详情

分类 Payload
质量 730.00 kg
干质量 700.00 kg
长度 0.30 m
跨度 29.00 m
形状 ? Box + pan
制造商 SPXS
平台类型 Starlink V2M
阶段状态 In Orbit
所有者/国家 SPXS/US

Most Searched